When you browse on this site, cookies collect data to enhance your experience and personalize the content and advertising you see.
Visit our Privacy Policy to learn more. By continuing to use the site, you agree to this use of cookies and data.
  • In France
  • List of Countries
  • For 7 days
  • Water Temperature
  • Satellite Maps
  • Weather Map
  • Weather Widgets
  • user-avatar
    Login

    Hourly Weather Silistra

    Today, 23 March, Saturday

    Time Temperature Precipitation Wind Pressure Humidity
    00:00 +10°C° 0 mm 2 mps 764 mmHg 56%
    01:00 +10°C° 0 mm 2 mps 764 mmHg 60%
    02:00 +10°C° 0 mm 3 mps 764 mmHg 63%
    03:00 +10°C° 0 mm 2 mps 764 mmHg 65%
    04:00 +10°C° 0 mm 2 mps 764 mmHg 67%
    05:00 +10°C° 0 mm 2 mps 763 mmHg 70%
    06:00 +10°C° 0 mm 3 mps 763 mmHg 66%
    07:00 +10°C° 0 mm 4 mps 763 mmHg 62%
    08:00 +10°C° 0 mm 5 mps 764 mmHg 58%
    09:00 +10°C° 0 mm 5 mps 763 mmHg 55%
    10:00 +11°C° 0 mm 4 mps 763 mmHg 52%
    11:00 +11°C° 0 mm 4 mps 763 mmHg 50%
    12:00 +11°C° 0 mm 4 mps 763 mmHg 48%
    13:00 +11°C° 0 mm 3 mps 763 mmHg 46%
    14:00 +13°C° 0 mm 2 mps 762 mmHg 46%
    15:00 +13°C° 0 mm 2 mps 762 mmHg 45%
    16:00 +13°C° 0 mm 1 mps 762 mmHg 44%
    17:00 +12°C° 0 mm 1 mps 762 mmHg 43%
    18:00 +12°C° 0 mm 1 mps 762 mmHg 40%
    19:00 +10°C° 0 mm 2 mps 763 mmHg 38%
    20:00 +10°C° 0 mm 2 mps 763 mmHg 35%
    21:00 +9°C° 0 mm 2 mps 763 mmHg 36%
    22:00 +8°C° 0 mm 2 mps 764 mmHg 37%
    23:00 +8°C° 0 mm 1 mps 764 mmHg 39%

    Tomorrow, 24 March, Sunday

    Time Temperature Precipitation Wind Pressure Humidity
    00:00 +8°C° 0 mm 1 mps 764 mmHg 40%
    01:00 +7°C° 0 mm 1 mps 764 mmHg 42%
    02:00 +7°C° 0 mm 1 mps 763 mmHg 44%
    03:00 +6°C° 0 mm 1 mps 763 mmHg 46%
    04:00 +6°C° 0 mm 1 mps 763 mmHg 48%
    05:00 +5°C° 0 mm 1 mps 763 mmHg 50%
    06:00 +6°C° 0 mm 1 mps 763 mmHg 50%
    07:00 +7°C° 0 mm 1 mps 763 mmHg 49%
    08:00 +8°C° 0 mm 1 mps 763 mmHg 48%
    09:00 +9°C° 0 mm 1 mps 763 mmHg 43%
    10:00 +10°C° 0 mm 2 mps 763 mmHg 38%
    11:00 +12°C° 0 mm 2 mps 763 mmHg 34%
    12:00 +13°C° 0 mm 2 mps 762 mmHg 31%
    13:00 +14°C° 0 mm 2 mps 762 mmHg 29%
    14:00 +15°C° 0 mm 2 mps 761 mmHg 27%
    15:00 +15°C° 0 mm 2 mps 761 mmHg 27%
    16:00 +15°C° 0 mm 2 mps 760 mmHg 28%
    17:00 +16°C° 0 mm 2 mps 760 mmHg 29%
    18:00 +14°C° 0 mm 2 mps 760 mmHg 32%
    19:00 +13°C° 0 mm 2 mps 760 mmHg 36%
    20:00 +12°C° 0 mm 2 mps 760 mmHg 39%
    21:00 +10°C° 0 mm 2 mps 760 mmHg 41%
    22:00 +10°C° 0 mm 2 mps 760 mmHg 43%
    23:00 +9°C° 0 mm 3 mps 760 mmHg 46%

    Day after tomorrow, 25 March, Monday

    Time Temperature Precipitation Wind Pressure Humidity
    00:00 +9°C° 0 mm 3 mps 759 mmHg 48%
    01:00 +8°C° 0 mm 3 mps 759 mmHg 50%
    02:00 +8°C° 0 mm 3 mps 759 mmHg 52%
    03:00 +8°C° 0 mm 3 mps 759 mmHg 54%
    04:00 +7°C° 0 mm 2 mps 758 mmHg 55%
    05:00 +7°C° 0 mm 2 mps 758 mmHg 57%
    06:00 +8°C° 0 mm 2 mps 757 mmHg 55%
    07:00 +9°C° 0 mm 3 mps 757 mmHg 53%
    08:00 +10°C° 0 mm 3 mps 757 mmHg 51%
    09:00 +12°C° 0 mm 3 mps 756 mmHg 44%
    10:00 +16°C° 0 mm 3 mps 756 mmHg 38%
    11:00 +18°C° 0 mm 4 mps 755 mmHg 31%
    12:00 +19°C° 0 mm 4 mps 755 mmHg 29%
    13:00 +20°C° 0 mm 4 mps 754 mmHg 27%
    14:00 +21°C° 0 mm 4 mps 753 mmHg 24%
    15:00 +21°C° 0 mm 3 mps 753 mmHg 26%
    16:00 +21°C° 0 mm 3 mps 753 mmHg 27%
    17:00 +20°C° 0 mm 2 mps 752 mmHg 28%
    18:00 +18°C° 0 mm 3 mps 752 mmHg 34%
    19:00 +16°C° 0 mm 3 mps 752 mmHg 40%
    20:00 +13°C° 0 mm 3 mps 753 mmHg 46%
    21:00 +13°C° 0 mm 4 mps 753 mmHg 50%
    22:00 +12°C° 0 mm 4 mps 753 mmHg 53%
    23:00 +11°C° 0 mm 4 mps 753 mmHg 56%

    26 March, Tuesday

    Time Temperature Precipitation Wind Pressure Humidity
    00:00 +11°C° 0 mm 4 mps 753 mmHg 57%
    01:00 +10°C° 0 mm 4 mps 753 mmHg 58%
    02:00 +10°C° 0 mm 3 mps 753 mmHg 59%
    03:00 +10°C° 0 mm 3 mps 753 mmHg 59%
    04:00 +9°C° 0 mm 2 mps 753 mmHg 59%
    05:00 +10°C° 0 mm 1 mps 753 mmHg 59%
    06:00 +11°C° 0 mm 1 mps 753 mmHg 58%
    07:00 +12°C° 0 mm 1 mps 754 mmHg 57%
    08:00 +12°C° 0 mm 1 mps 754 mmHg 56%
    09:00 +14°C° 0 mm 2 mps 755 mmHg 53%
    10:00 +14°C° 0 mm 3 mps 755 mmHg 50%
    11:00 +17°C° 0 mm 3 mps 755 mmHg 47%
    12:00 +15°C° 0 mm 5 mps 756 mmHg 52%
    13:00 +14°C° 0 mm 7 mps 756 mmHg 57%
    14:00 +13°C° 0 mm 9 mps 756 mmHg 62%
    15:00 +11°C° 0 mm 8 mps 756 mmHg 63%
    16:00 +10°C° 0 mm 8 mps 757 mmHg 65%
    17:00 +9°C° 0 mm 7 mps 757 mmHg 67%
    18:00 +9°C° 0.2 mm 6 mps 758 mmHg 66%
    19:00 +9°C° 0.2 mm 6 mps 759 mmHg 65%
    20:00 +9°C° 0.2 mm 5 mps 760 mmHg 63%
    21:00 +8°C° 0.3 mm 4 mps 760 mmHg 64%
    22:00 +8°C° 0.3 mm 4 mps 761 mmHg 65%
    23:00 +9°C° 0.3 mm 3 mps 761 mmHg 66%

    27 March, Wednesday

    Time Temperature Precipitation Wind Pressure Humidity
    00:00 +7°C° 0 mm 4 mps 762 mmHg 63%
    01:00 +7°C° 0 mm 4 mps 762 mmHg 60%
    02:00 +7°C° 0 mm 5 mps 762 mmHg 57%
    03:00 +6°C° 0 mm 4 mps 763 mmHg 57%
    04:00 +5°C° 0 mm 4 mps 763 mmHg 58%
    05:00 +5°C° 0 mm 3 mps 763 mmHg 58%
    06:00 +5°C° 0 mm 3 mps 763 mmHg 54%
    07:00 +5°C° 0 mm 4 mps 764 mmHg 51%
    08:00 +6°C° 0 mm 4 mps 764 mmHg 48%
    09:00 +8°C° 0 mm 3 mps 764 mmHg 42%
    10:00 +9°C° 0 mm 3 mps 765 mmHg 35%
    11:00 +10°C° 0 mm 3 mps 765 mmHg 29%
    12:00 +11°C° 0 mm 3 mps 764 mmHg 29%
    13:00 +13°C° 0 mm 2 mps 764 mmHg 29%
    14:00 +13°C° 0 mm 2 mps 764 mmHg 29%
    15:00 +13°C° 0 mm 2 mps 764 mmHg 29%
    16:00 +13°C° 0 mm 2 mps 764 mmHg 30%
    17:00 +13°C° 0 mm 2 mps 764 mmHg 30%
    18:00 +12°C° 0 mm 2 mps 764 mmHg 33%
    19:00 +11°C° 0 mm 1 mps 765 mmHg 36%
    20:00 +10°C° 0 mm 1 mps 765 mmHg 39%
    21:00 +8°C° 0 mm 2 mps 766 mmHg 42%
    22:00 +8°C° 0 mm 3 mps 766 mmHg 44%
    23:00 +7°C° 0 mm 4 mps 766 mmHg 47%

    28 March, Thursday

    Time Temperature Precipitation Wind Pressure Humidity
    00:00 +7°C° 0 mm 3 mps 767 mmHg 50%
    01:00 +5°C° 0 mm 3 mps 767 mmHg 53%
    02:00 +5°C° 0 mm 2 mps 767 mmHg 56%
    03:00 +5°C° 0 mm 2 mps 767 mmHg 56%
    04:00 +5°C° 0 mm 2 mps 767 mmHg 57%
    05:00 +4°C° 0 mm 2 mps 767 mmHg 57%
    06:00 +4°C° 0 mm 3 mps 768 mmHg 54%
    07:00 +4°C° 0 mm 3 mps 768 mmHg 50%
    08:00 +5°C° 0 mm 4 mps 768 mmHg 47%
    09:00 +6°C° 0 mm 4 mps 768 mmHg 41%
    10:00 +7°C° 0 mm 4 mps 768 mmHg 36%
    11:00 +9°C° 0 mm 5 mps 768 mmHg 30%
    12:00 +10°C° 0 mm 4 mps 768 mmHg 29%
    13:00 +11°C° 0 mm 4 mps 767 mmHg 27%
    14:00 +12°C° 0 mm 4 mps 767 mmHg 26%
    15:00 +11°C° 0 mm 4 mps 767 mmHg 27%
    16:00 +11°C° 0 mm 4 mps 767 mmHg 28%
    17:00 +11°C° 0 mm 3 mps 766 mmHg 29%
    18:00 +9°C° 0 mm 3 mps 767 mmHg 36%
    19:00 +8°C° 0 mm 3 mps 767 mmHg 42%
    20:00 +5°C° 0 mm 3 mps 767 mmHg 49%
    21:00 +6°C° 0 mm 2 mps 767 mmHg 52%
    22:00 +5°C° 0 mm 2 mps 768 mmHg 56%
    23:00 +4°C° 0 mm 2 mps 768 mmHg 59%
    Show more